Amelia, Virginia, United States
Lat: 37.37N, Lon: 77.92W
Wx Zone: VAZ068
Local Info
Past Weather Observations for Thursday, July 2, 2015

NOTE: This archive is for the closest National Weather Service station to Amelia. Information may differ from the station used for current weather conditions.

Click here for Long-term Archive

Time Weather Temperature Dewpoint Humidity Pressure Winds Precip Visibility
23:55
Overcast
Fog And Mist
68°F / 20°C 68°F / 20°C 100% 29.95 in
(1014 mb)
Calm - 4SM
23:35
Overcast
Fog And Mist
66°F / 19°C 66°F / 19°C 100% 29.95 in
(1014 mb)
Calm - 5SM
23:15
Partly Cloudy
Fog And Mist
66°F / 19°C 66°F / 19°C 100% 29.95 in
(1014 mb)
Calm - 3SM
22:55
Clear
68°F / 20°C 68°F / 20°C 100% 29.95 in
(1014 mb)
Calm - 7SM
22:35
Clear
Fog And Mist
68°F / 20°C 68°F / 20°C 100% 29.95 in
(1014 mb)
Calm - 5SM
22:15
Clear
68°F / 20°C 68°F / 20°C 100% 29.92 in
(1013 mb)
Calm - 7SM
21:55
Clear
Fog And Mist
68°F / 20°C 68°F / 20°C 100% 29.92 in
(1013 mb)
Calm - 4SM
21:35
Clear
72°F / 22°C 72°F / 22°C 100% 29.92 in
(1013 mb)
Calm - 7SM
21:15
Clear
Fog And Mist
70°F / 21°C 70°F / 21°C 100% 29.92 in
(1013 mb)
Calm - 5SM
20:55
Clear
72°F / 22°C 72°F / 22°C 100% 29.92 in
(1013 mb)
Calm - 7SM
20:35
Partly Cloudy
73°F / 23°C 73°F / 23°C 100% 29.92 in
(1013 mb)
Calm - 7SM
20:15
Overcast
73°F / 23°C 73°F / 23°C 100% 29.92 in
(1013 mb)
N 5.8 mph
(N 9 kph)
- 7SM
19:55
Mostly Cloudy
72°F / 22°C 72°F / 22°C 100% 29.92 in
(1013 mb)
N 3.5 mph
(N 6 kph)
- 7SM
19:35
Clear
73°F / 23°C 73°F / 23°C 100% 29.92 in
(1013 mb)
NE 3.5 mph
(NE 6 kph)
- 7SM
19:15
Clear
73°F / 23°C 73°F / 23°C 100% 29.89 in
(1012 mb)
NE 5.8 mph
(NE 9 kph)
- 7SM
18:55
Clear
75°F / 24°C 73°F / 23°C 94% 29.92 in
(1013 mb)
NE 4.6 mph
(NE 7 kph)
- 7SM
18:35
Clear
75°F / 24°C 75°F / 24°C 100% 29.89 in
(1012 mb)
NNE 4.6 mph
(NNE 7 kph)
- 7SM
18:15
Clear
75°F / 24°C 75°F / 24°C 100% 29.89 in
(1012 mb)
NE 3.5 mph
(NE 6 kph)
- 7SM
17:55
Partly Cloudy
Light Rain
75°F / 24°C 75°F / 24°C 100% 29.89 in
(1012 mb)
N 3.5 mph
(N 6 kph)
- 7SM
17:35
Overcast
Light Rain
75°F / 24°C 75°F / 24°C 100% 29.89 in
(1012 mb)
NNW 4.6 mph
(NNW 7 kph)
- 7SM
17:15
Overcast
Light Rain
77°F / 25°C 77°F / 25°C 100% 29.89 in
(1012 mb)
NW 3.5 mph
(NW 6 kph)
- 5SM
16:55
Overcast
Light Rain
75°F / 24°C 75°F / 24°C 100% 29.89 in
(1012 mb)
NW 4.6 mph
(NW 7 kph)
0.03 in
(0.76 mm)
4SM
16:35
Overcast
Rain
77°F / 25°C 77°F / 25°C 100% 29.89 in
(1012 mb)
Calm 0.02 in
(0.51 mm)
3SM
16:15
Mostly Cloudy
Light Rain
77°F / 25°C 77°F / 25°C 100% 29.89 in
(1012 mb)
W 6.9 mph
(W 11 kph)
- 3SM
15:55
Overcast
Light Rain
79°F / 26°C 77°F / 25°C 94% 29.89 in
(1012 mb)
WNW 8.1 mph
(WNW 13 kph)
- 7SM
15:35
Overcast
Light Rain
79°F / 26°C 75°F / 24°C 89% 29.89 in
(1012 mb)
NW 6.9 mph
(NW 11 kph)
- 7SM
15:15
Overcast
Light Rain
81°F / 27°C 75°F / 24°C 84% 29.89 in
(1012 mb)
NW 6.9 mph
(NW 11 kph)
- 7SM
14:55
Mostly Cloudy
Light Rain
81°F / 27°C 75°F / 24°C 84% 29.89 in
(1012 mb)
NW 9.2 mph
(NW 15 kph)
- 10SM
14:35
Overcast
Light Rain
81°F / 27°C 75°F / 24°C 84% 29.89 in
(1012 mb)
NW 9.2 mph
(NW 15 kph)
- 10SM
14:15
Mostly Cloudy
84°F / 29°C 73°F / 23°C 70% 29.89 in
(1012 mb)
W 6.9 mph
(W 11 kph)
- 10SM
13:55
Partly Cloudy
86°F / 30°C 73°F / 23°C 66% 29.86 in
(1011 mb)
SSW 9.2 mph
(SSW 15 kph)
- 7SM
Time Weather Temperature Dewpoint Humidity Pressure Winds Precip Visibility


Weather for websites

WeatherForYou.com, LLC is not responsible for any damages or problems caused by this service. Current weather conditions are obtained from the closest station including government and personal stations which may have varying degrees of accuracy. Weather forecasts are derived from the NOAA NDFD. Like all things, this site belongs to Jesus Christ... He just trusts us to maintain it. If you have any questions or comments email webmaster@weatherforyou.com

Copyright © 2015, WeatherForYou.com LLC. All rights reserved.